General Aviation Weather

Text Reports

Enter one or more of the following location identifiers separated by a space:

Zip Code, Four-Character ICAO or Three-Character IATA airport codes.

METAR - Aviation Routine Weather Report
KILE - Killeen, Texas
Updated at 10:56 PM GMT on July 24, 2016 (5:56 PM CDT):
METAR KILE 242256Z AUTO 13007KT 10SM SCT070 37/21 A2989 RMK AO2 SLP119 T03670206
TAF - Terminal Area Forecast
KILE - Killeen, Texas
Updated at 10:56 PM GMT on July 24, 2016 (5:56 PM CDT):
No TAF is currently available for this location.
Decoded:
No decoded TAF is available.
PIREP - Pilot Weather Report
KILE - Killeen, Texas
Updated at 10:56 PM GMT on July 24, 2016 (5:56 PM CDT):
No PIREP is currently available for this location.
AIRMET - Airmens Meteorological Information
KILE - Killeen, Texas
Updated at 10:56 PM GMT on July 24, 2016 (5:56 PM CDT):
No AIRMET is currently available for this location.
SIGMET - Significant Meteorological Information
KILE - Killeen, Texas
Updated at 10:56 PM GMT on July 24, 2016 (5:56 PM CDT):
No SIGMET is currently available for this location.
NOTAM - Notice to Airmen
KILE - Killeen, Texas
Updated at 10:56 PM GMT on July 24, 2016 (5:56 PM CDT):
No NOTAM is currently available for this location.
Forecast Area
KILE - Killeen, Texas
Updated at 10:56 PM GMT on July 24, 2016 (5:56 PM CDT):
No NOTAM is currently available for this location.
Aviation Weather Maps